Location: Oberwangen
(47.4286°N, 8.9679°E)
Time: 15:34:04
(UTC+00:00)

SL-4 R/B - Pass Details

Date: 20 June 2021
Orbit: 428 x 662 km, 51.6° (Epoch: 02 August)

Event Time Altitude Azimuth Distance (km) Brightness Sun altitude
Rises 20:15:26 0° 190° (S) 2,799 5.3 -7.2°
Reaches altitude 10° 20:18:41 10° 165° (SSE) 1,848 4.2 -7.6°
Maximum altitude 20:20:52 14° 134° (SE) 1,574 3.7 -7.8°
Drops below altitude 10° 20:22:59 10° 102° (ESE) 1,776 4.1 -8.1°
Sets 20:26:00 0° 76° (ENE) 2,612 5.2 -8.4°
